(°C)
(°C)
OZO
ZO
ZO
O
ONO
ONO
ONO
(km/u)
8-18
6-16
6-18
5-16
7-14
8-14
9-13
(mm)
0
1
0
0
0
0
0
(%)
0
25
7
7
7
0
7

Zonverhoging

/ -32.6°
sun-icon
UV 1
07:04
19:11
Afnemende maan (231°)
20:22
12:12

METAR voor 57.92°N 56.02°O (USPP)

Tijd Voorwaarden Temperatuur/
Dauwpunt
Wind Zicht Weer Wolken Luchtdruk Wijzigen Ruw
VFR 9°C / 6°C 140º 4kt >10km Light Rain 1.00mm precipitation Vertical Visibility of 0ft. 1021 No Significant change. Runway 21: Wet or puddles, 51-100% contamination with 1mm, friction coefficient 0.50. USPP 241900Z 14002MPS 9999 -RA NSC 09/06 Q1021 R21/290150 NOSIG RMK QFE755
VFR 9°C / 7°C 150º 6kt >10km Light Rain 1.00mm precipitation Vertical Visibility of 0ft. 1021 No Significant change. Runway 21: Wet or puddles, 51-100% contamination with 1mm, friction coefficient 0.50. USPP 241830Z 15003MPS 9999 -RA NSC 09/07 Q1021 R21/290150 NOSIG RMK QFE755
VFR 10°C / 6°C 150º 6kt >10km Light Rain 1.00mm precipitation Vertical Visibility of 0ft. 1021 No Significant change. Runway 21: Wet or puddles, 51-100% contamination with 1mm, friction coefficient 0.50. USPP 241800Z 15003MPS 9999 -RA NSC 10/06 Q1021 R21/290150 NOSIG RMK QFE755
VFR 9°C / 7°C 140º 6kt >10km Light Rain 1.00mm precipitation Vertical Visibility of 0ft. 1021 No Significant change. Runway 21: Wet or puddles, 51-100% contamination with 1mm, friction coefficient 0.50. USPP 241730Z 14003MPS 9999 -RA NSC 09/07 Q1021 R21/290150 NOSIG RMK QFE755
VFR 10°C / 6°C 140º 6kt >10km Light Rain 1.00mm precipitation Vertical Visibility of 0ft. 1022 No Significant change. Runway 21: Wet or puddles, 51-100% contamination with 1mm, friction coefficient 0.50. USPP 241700Z 14003MPS 9999 -RA NSC 10/06 Q1022 R21/290150 NOSIG RMK QFE755
VFR 10°C / 6°C 150º 6kt >10km Light Rain 1.00mm precipitation Vertical Visibility of 0ft. 1022 No Significant change. Runway 21: Wet or puddles, 51-100% contamination with 1mm, friction coefficient 0.50. USPP 241630Z 15003MPS 9999 -RA NSC 10/06 Q1022 R21/290150 NOSIG RMK QFE755
VFR 10°C / 6°C 150º 6kt >10km Light Rain 1.00mm precipitation Vertical Visibility of 0ft. 1022 No Significant change. Runway 21: Damp, 51-100% contamination with <1mm, friction coefficient 0.55. USPP 241600Z 15003MPS 9999 -RA NSC 10/06 Q1022 R21/190055 NOSIG RMK QFE755
VFR 11°C / 5°C 140º 8kt >10km Light Rain 1.00mm precipitation Vertical Visibility of 0ft. 1022 No Significant change. Runway 21: Clear and dry, 51-100% contamination with <1mm, friction coefficient 0.60. USPP 241530Z 14004MPS 9999 -RA NSC 11/05 Q1022 R21/090060 NOSIG RMK QFE755
VFR 10°C / 5°C 140º 8kt >10km - Clouds and Visibility OK 1022 No Significant change. Runway 21: Clear and dry, 51-100% contamination with <1mm, friction coefficient 0.60. USPP 241500Z 14004MPS CAVOK 10/05 Q1022 R21/090060 NOSIG RMK QFE755
VFR 10°C / 5°C 130º 8kt >10km - Clouds and Visibility OK 1022 No Significant change. Runway 21: Clear and dry, 51-100% contamination with <1mm, friction coefficient 0.60. USPP 241430Z 13004MPS CAVOK 10/05 Q1022 R21/090060 NOSIG RMK QFE755
VFR 11°C / 5°C 140º 8kt >10km - Clouds and Visibility OK 1022 No Significant change. Runway 21: Clear and dry, 51-100% contamination with <1mm, friction coefficient 0.60. USPP 241400Z 14004MPS CAVOK 11/05 Q1022 R21/090060 NOSIG RMK QFE756
VFR 11°C / 5°C 140º 8kt >10km - Clouds and Visibility OK 1022 No Significant change. Runway 21: Clear and dry, 51-100% contamination with <1mm, friction coefficient 0.60. USPP 241330Z 14004MPS CAVOK 11/05 Q1022 R21/090060 NOSIG RMK QFE756
VFR 11°C / 5°C 140º 12kt >10km - Clouds and Visibility OK 1022 No Significant change. Runway 21: Clear and dry, 51-100% contamination with <1mm, friction coefficient 0.60. USPP 241300Z 14006MPS CAVOK 11/05 Q1022 R21/090060 NOSIG RMK QFE755
VFR 12°C / 5°C 130º 12kt >10km - Clouds and Visibility OK 1022 No Significant change. Runway 21: Clear and dry, 51-100% contamination with <1mm, friction coefficient 0.60. USPP 241230Z 13006MPS CAVOK 12/05 Q1022 R21/090060 NOSIG RMK QFE756
VFR 12°C / 5°C 140º 10kt >10km - Clouds and Visibility OK 1022 No Significant change. Runway 21: Clear and dry, 51-100% contamination with <1mm, friction coefficient 0.60. USPP 241200Z 14005MPS CAVOK 12/05 Q1022 R21/090060 NOSIG RMK QFE756
VFR 12°C / 5°C 130º 10kt >10km - Clouds and Visibility OK 1022 No Significant change. Runway 21: Clear and dry, 51-100% contamination with <1mm, friction coefficient 0.60. USPP 241130Z 13005MPS CAVOK 12/05 Q1022 R21/090060 NOSIG RMK QFE756
VFR 13°C / 5°C 130º 10kt >10km - Clouds and Visibility OK 1022 No Significant change. Runway 21: Clear and dry, 51-100% contamination with <1mm, friction coefficient 0.60. USPP 241100Z 13005MPS CAVOK 13/05 Q1022 R21/090060 NOSIG RMK QFE756
VFR 13°C / 6°C 140º variable 110º to 170º 8kt >10km - Clouds and Visibility OK 1023 No Significant change. Runway 21: Clear and dry, 51-100% contamination with <1mm, friction coefficient 0.60. USPP 241030Z 14004MPS 110V170 CAVOK 13/06 Q1023 R21/090060 NOSIG RMK QFE756
VFR 14°C / 4°C 130º variable 100º to 170º 6kt >10km - Clouds and Visibility OK 1023 No Significant change. Runway 21: Clear and dry, 51-100% contamination with <1mm, friction coefficient 0.60. USPP 241000Z 13003MPS 100V170 CAVOK 14/04 Q1023 R21/090060 NOSIG RMK QFE756
VFR 14°C / 4°C 210º 4kt >10km - Clouds and Visibility OK 1023 No Significant change. Runway 21: Clear and dry, 51-100% contamination with <1mm, friction coefficient 0.60. USPP 240930Z 21002MPS CAVOK 14/04 Q1023 R21/090060 NOSIG RMK QFE756
VFR 13°C / 4°C 250º 8kt >10km - Clouds and Visibility OK 1023 No Significant change. Runway 21: Clear and dry, 51-100% contamination with <1mm, friction coefficient 0.60. USPP 240900Z 25004MPS CAVOK 13/04 Q1023 R21/090060 NOSIG RMK QFE757
VFR 13°C / 4°C variable 2kt >10km - Clouds and Visibility OK 1023 No Significant change. Runway 21: Clear and dry, 51-100% contamination with <1mm, friction coefficient 0.60. USPP 240830Z VRB01MPS CAVOK 13/04 Q1023 R21/090060 NOSIG RMK QFE757
VFR 13°C / 4°C variable 2kt >10km - Clouds and Visibility OK 1023 No Significant change. Runway 21: Clear and dry, 51-100% contamination with <1mm, friction coefficient 0.60. USPP 240800Z VRB01MPS CAVOK 13/04 Q1023 R21/090060 NOSIG RMK QFE757
VFR 13°C / 5°C 120º variable 060º to 180º 4kt >10km - Clouds and Visibility OK 1023 No Significant change. Runway 21: Clear and dry, 51-100% contamination with <1mm, friction coefficient 0.60. USPP 240730Z 12002MPS 060V180 CAVOK 13/05 Q1023 R21/090060 NOSIG RMK QFE757

VFR

9°C / 6°C

[Meer]
Wind 140º 4kt
Zicht >10km
Weer Light Rain 1.00mm precipitation
Wolken Vertical Visibility of 0ft.
Luchtdruk 1021
Wijzigen No Significant change. Runway 21: Wet or puddles, 51-100% contamination with 1mm, friction coefficient 0.50.
Ruw USPP 241900Z 14002MPS 9999 -RA NSC 09/06 Q1021 R21/290150 NOSIG RMK QFE755

VFR

9°C / 7°C

[Meer]
Wind 150º 6kt
Zicht >10km
Weer Light Rain 1.00mm precipitation
Wolken Vertical Visibility of 0ft.
Luchtdruk 1021
Wijzigen No Significant change. Runway 21: Wet or puddles, 51-100% contamination with 1mm, friction coefficient 0.50.
Ruw USPP 241830Z 15003MPS 9999 -RA NSC 09/07 Q1021 R21/290150 NOSIG RMK QFE755

VFR

10°C / 6°C

[Meer]
Wind 150º 6kt
Zicht >10km
Weer Light Rain 1.00mm precipitation
Wolken Vertical Visibility of 0ft.
Luchtdruk 1021
Wijzigen No Significant change. Runway 21: Wet or puddles, 51-100% contamination with 1mm, friction coefficient 0.50.
Ruw USPP 241800Z 15003MPS 9999 -RA NSC 10/06 Q1021 R21/290150 NOSIG RMK QFE755

VFR

9°C / 7°C

[Meer]
Wind 140º 6kt
Zicht >10km
Weer Light Rain 1.00mm precipitation
Wolken Vertical Visibility of 0ft.
Luchtdruk 1021
Wijzigen No Significant change. Runway 21: Wet or puddles, 51-100% contamination with 1mm, friction coefficient 0.50.
Ruw USPP 241730Z 14003MPS 9999 -RA NSC 09/07 Q1021 R21/290150 NOSIG RMK QFE755

VFR

10°C / 6°C

[Meer]
Wind 140º 6kt
Zicht >10km
Weer Light Rain 1.00mm precipitation
Wolken Vertical Visibility of 0ft.
Luchtdruk 1022
Wijzigen No Significant change. Runway 21: Wet or puddles, 51-100% contamination with 1mm, friction coefficient 0.50.
Ruw USPP 241700Z 14003MPS 9999 -RA NSC 10/06 Q1022 R21/290150 NOSIG RMK QFE755

VFR

10°C / 6°C

[Meer]
Wind 150º 6kt
Zicht >10km
Weer Light Rain 1.00mm precipitation
Wolken Vertical Visibility of 0ft.
Luchtdruk 1022
Wijzigen No Significant change. Runway 21: Wet or puddles, 51-100% contamination with 1mm, friction coefficient 0.50.
Ruw USPP 241630Z 15003MPS 9999 -RA NSC 10/06 Q1022 R21/290150 NOSIG RMK QFE755

VFR

10°C / 6°C

[Meer]
Wind 150º 6kt
Zicht >10km
Weer Light Rain 1.00mm precipitation
Wolken Vertical Visibility of 0ft.
Luchtdruk 1022
Wijzigen No Significant change. Runway 21: Damp, 51-100% contamination with <1mm, friction coefficient 0.55.
Ruw USPP 241600Z 15003MPS 9999 -RA NSC 10/06 Q1022 R21/190055 NOSIG RMK QFE755

VFR

11°C / 5°C

[Meer]
Wind 140º 8kt
Zicht >10km
Weer Light Rain 1.00mm precipitation
Wolken Vertical Visibility of 0ft.
Luchtdruk 1022
Wijzigen No Significant change. Runway 21: Clear and dry, 51-100% contamination with <1mm, friction coefficient 0.60.
Ruw USPP 241530Z 14004MPS 9999 -RA NSC 11/05 Q1022 R21/090060 NOSIG RMK QFE755

VFR

10°C / 5°C

[Meer]
Wind 140º 8kt
Zicht >10km
Weer -
Wolken Clouds and Visibility OK
Luchtdruk 1022
Wijzigen No Significant change. Runway 21: Clear and dry, 51-100% contamination with <1mm, friction coefficient 0.60.
Ruw USPP 241500Z 14004MPS CAVOK 10/05 Q1022 R21/090060 NOSIG RMK QFE755

VFR

10°C / 5°C

[Meer]
Wind 130º 8kt
Zicht >10km
Weer -
Wolken Clouds and Visibility OK
Luchtdruk 1022
Wijzigen No Significant change. Runway 21: Clear and dry, 51-100% contamination with <1mm, friction coefficient 0.60.
Ruw USPP 241430Z 13004MPS CAVOK 10/05 Q1022 R21/090060 NOSIG RMK QFE755

VFR

11°C / 5°C

[Meer]
Wind 140º 8kt
Zicht >10km
Weer -
Wolken Clouds and Visibility OK
Luchtdruk 1022
Wijzigen No Significant change. Runway 21: Clear and dry, 51-100% contamination with <1mm, friction coefficient 0.60.
Ruw USPP 241400Z 14004MPS CAVOK 11/05 Q1022 R21/090060 NOSIG RMK QFE756

VFR

11°C / 5°C

[Meer]
Wind 140º 8kt
Zicht >10km
Weer -
Wolken Clouds and Visibility OK
Luchtdruk 1022
Wijzigen No Significant change. Runway 21: Clear and dry, 51-100% contamination with <1mm, friction coefficient 0.60.
Ruw USPP 241330Z 14004MPS CAVOK 11/05 Q1022 R21/090060 NOSIG RMK QFE756

VFR

11°C / 5°C

[Meer]
Wind 140º 12kt
Zicht >10km
Weer -
Wolken Clouds and Visibility OK
Luchtdruk 1022
Wijzigen No Significant change. Runway 21: Clear and dry, 51-100% contamination with <1mm, friction coefficient 0.60.
Ruw USPP 241300Z 14006MPS CAVOK 11/05 Q1022 R21/090060 NOSIG RMK QFE755

VFR

12°C / 5°C

[Meer]
Wind 130º 12kt
Zicht >10km
Weer -
Wolken Clouds and Visibility OK
Luchtdruk 1022
Wijzigen No Significant change. Runway 21: Clear and dry, 51-100% contamination with <1mm, friction coefficient 0.60.
Ruw USPP 241230Z 13006MPS CAVOK 12/05 Q1022 R21/090060 NOSIG RMK QFE756

VFR

12°C / 5°C

[Meer]
Wind 140º 10kt
Zicht >10km
Weer -
Wolken Clouds and Visibility OK
Luchtdruk 1022
Wijzigen No Significant change. Runway 21: Clear and dry, 51-100% contamination with <1mm, friction coefficient 0.60.
Ruw USPP 241200Z 14005MPS CAVOK 12/05 Q1022 R21/090060 NOSIG RMK QFE756

VFR

12°C / 5°C

[Meer]
Wind 130º 10kt
Zicht >10km
Weer -
Wolken Clouds and Visibility OK
Luchtdruk 1022
Wijzigen No Significant change. Runway 21: Clear and dry, 51-100% contamination with <1mm, friction coefficient 0.60.
Ruw USPP 241130Z 13005MPS CAVOK 12/05 Q1022 R21/090060 NOSIG RMK QFE756

VFR

13°C / 5°C

[Meer]
Wind 130º 10kt
Zicht >10km
Weer -
Wolken Clouds and Visibility OK
Luchtdruk 1022
Wijzigen No Significant change. Runway 21: Clear and dry, 51-100% contamination with <1mm, friction coefficient 0.60.
Ruw USPP 241100Z 13005MPS CAVOK 13/05 Q1022 R21/090060 NOSIG RMK QFE756

VFR

13°C / 6°C

[Meer]
Wind 140º variable 110º to 170º 8kt
Zicht >10km
Weer -
Wolken Clouds and Visibility OK
Luchtdruk 1023
Wijzigen No Significant change. Runway 21: Clear and dry, 51-100% contamination with <1mm, friction coefficient 0.60.
Ruw USPP 241030Z 14004MPS 110V170 CAVOK 13/06 Q1023 R21/090060 NOSIG RMK QFE756

VFR

14°C / 4°C

[Meer]
Wind 130º variable 100º to 170º 6kt
Zicht >10km
Weer -
Wolken Clouds and Visibility OK
Luchtdruk 1023
Wijzigen No Significant change. Runway 21: Clear and dry, 51-100% contamination with <1mm, friction coefficient 0.60.
Ruw USPP 241000Z 13003MPS 100V170 CAVOK 14/04 Q1023 R21/090060 NOSIG RMK QFE756

VFR

14°C / 4°C

[Meer]
Wind 210º 4kt
Zicht >10km
Weer -
Wolken Clouds and Visibility OK
Luchtdruk 1023
Wijzigen No Significant change. Runway 21: Clear and dry, 51-100% contamination with <1mm, friction coefficient 0.60.
Ruw USPP 240930Z 21002MPS CAVOK 14/04 Q1023 R21/090060 NOSIG RMK QFE756

VFR

13°C / 4°C

[Meer]
Wind 250º 8kt
Zicht >10km
Weer -
Wolken Clouds and Visibility OK
Luchtdruk 1023
Wijzigen No Significant change. Runway 21: Clear and dry, 51-100% contamination with <1mm, friction coefficient 0.60.
Ruw USPP 240900Z 25004MPS CAVOK 13/04 Q1023 R21/090060 NOSIG RMK QFE757

VFR

13°C / 4°C

[Meer]
Wind variable 2kt
Zicht >10km
Weer -
Wolken Clouds and Visibility OK
Luchtdruk 1023
Wijzigen No Significant change. Runway 21: Clear and dry, 51-100% contamination with <1mm, friction coefficient 0.60.
Ruw USPP 240830Z VRB01MPS CAVOK 13/04 Q1023 R21/090060 NOSIG RMK QFE757

VFR

13°C / 4°C

[Meer]
Wind variable 2kt
Zicht >10km
Weer -
Wolken Clouds and Visibility OK
Luchtdruk 1023
Wijzigen No Significant change. Runway 21: Clear and dry, 51-100% contamination with <1mm, friction coefficient 0.60.
Ruw USPP 240800Z VRB01MPS CAVOK 13/04 Q1023 R21/090060 NOSIG RMK QFE757

VFR

13°C / 5°C

[Meer]
Wind 120º variable 060º to 180º 4kt
Zicht >10km
Weer -
Wolken Clouds and Visibility OK
Luchtdruk 1023
Wijzigen No Significant change. Runway 21: Clear and dry, 51-100% contamination with <1mm, friction coefficient 0.60.
Ruw USPP 240730Z 12002MPS 060V180 CAVOK 13/05 Q1023 R21/090060 NOSIG RMK QFE757

TAF voor 57.92°N 56.02°O (USPP)

From till


From till Wind 120º 6kt. Gust 25kt. Visibility 6000m. Broken Clouds 1600ft.
Temporarly from till Wind 160º 6kt. Gust 27kt. Broken Clouds 600ft.
Becoming from till Wind 120º 6kt. Gust 25kt. Visibility 10km or more. Broken Clouds 2000ft.

Ruw: TAF USPP 241656Z 2418/2518 12003G13MPS 6000 BKN016 TEMPO 2418/2504 16003G14MPS BKN006 BECMG 2504/2505 9999 BKN020

Huidige satelliet- en regenbeelden voor 57.92°N 56.02°O

De locatiemarkering is geplaatst op 57.92°N 56.02°O. [Meer]

Het realtime satellietbeeld combineert zichtbaar licht overdag met infraroodstraling 's nachts. 's Nachts is het beeld niet donker, omdat infraroodstraling temperatuurverschillen kan waarnemen. Helaas zijn lage wolken en mist moeilijk te onderscheiden van grondtemperaturen en kunnen dus 's nachts bijna onzichtbaar zijn. Meteosat-satellietbeelden voor Europa worden elke 5 minuten in real time bijgewerkt. De beelden van GOES-16/GOES-17 (Noord- en Zuid-Amerika) en Himawari (Azië) worden om de 10 minuten bijgewerkt.

Copyright 2021 EUMETSAT / meteoblue. / Copyright 2021 meteoblue

Radar en neerslag nowcast voor 57.92°N 56.02°O

Motregen
Licht
Matig
Zwaar
Zeer zwaar
Hail

De locatiemarkering wordt geplaatst op 57.92°N 56.02°O. Deze animation toont de neerslag radar van het afgelopen uur, maar ook de 1h verwachting. Motregen of lichte sneeuwval kan onzichtbaar zijn voor de radar. De neerslagintensiteit wordt met kleuren gecodeerd, van lichtblauw tot oranje.